Location: Marstown
(39.5056°N, 77.0820°W)
Time: 00:28:30
(UTC-04:00)

ISS - Visible Passes

Search period start: 25 September 2017 00:00
Search period end: 05 October 2017 00:00
Orbit: 401 x 407 km, 51.6° (Epoch: 25 September)

Date Brightness Start Highest point End Pass type
(mag) Time Alt. Az. Time Alt. Az. Time Alt. Az.
25 Sep -3.1 19:52:43 10° SSW 19:55:44 35° SE 19:57:34 19° E visible
25 Sep -0.7 21:29:24 10° W 21:30:16 16° WNW 21:30:16 16° WNW visible
26 Sep -2.9 20:36:36 10° WSW 20:39:46 45° NNW 20:40:33 36° N visible
27 Sep -3.8 19:44:06 10° SW 19:47:22 87° NNW 19:50:39 10° NE visible
27 Sep -0.8 21:22:00 10° WNW 21:23:19 15° NW 21:23:19 15° NW visible
28 Sep -1.7 20:28:54 10° W 20:31:38 24° NNW 20:33:16 16° NNE visible
29 Sep -2.5 19:36:01 10° WSW 19:39:05 37° NNW 19:42:10 10° NE visible
29 Sep -0.7 21:14:52 10° NW 21:15:44 12° NNW 21:15:44 12° NNW visible
30 Sep -1.1 20:21:32 10° WNW 20:23:34 15° NNW 20:25:27 11° NNE visible
01 Oct -1.6 19:28:20 10° WNW 19:30:54 21° NNW 19:33:28 10° NNE visible
02 Oct -1.0 20:14:23 10° NNW 20:15:33 11° N 20:16:44 10° N visible
03 Oct -1.2 19:20:57 10° NW 19:22:47 14° NNW 19:24:37 10° NNE visible
04 Oct -1.0 20:07:20 10° N 20:07:34 10° N 20:07:47 10° N visible
